Hourly Data Report for January 10, 2013

BAGOTVILLE A
QUEBEC

48°20'00.000" N
71°00'00.000" W
159.10 m
7060400
71727
YBG

Download Data

Hourly Data (January 2013)
Hourly Data Report for January 10, 2013
TIME
LST
Temp Definition
°C
Dew Point Definition
°C
Rel Hum Definition
%
Precip. Amount Definition
mm

Wind Dir Definition
10's deg

Wind Spd Definition
km/h
Visibility Definition
km
Stn Press Definition
kPa
Hmdx Definition


Wind Chill Definition


Weather Definition


00:00 0.0 -1.0 93   27 22 6.4 98.60   -6 Snow
01:00 0.3 -0.4 95   28 26 1.6 98.76     Snow
02:00 0.8 -1.0 88   29 26 8.0 98.96     Snow
03:00 1.1 -1.2 85   28 28 24.1 99.09     Snow
04:00 1.2 -1.9 80   28 20 24.1 99.19     Cloudy
05:00 1.1 -1.7 82   28 22 16.1 99.32     Snow Showers
06:00 1.0 -1.5 83   29 35 6.4 99.49     Snow Showers
07:00 -1.9 -2.4 96   29 52 4.8 99.73   -11 Snow Showers,Blowing Snow
08:00 -1.9 -4.1 85   29 46 4.8 100.00   -10 Snow Showers,Blowing Snow
09:00 -2.8 -5.5 82   29 43 8.0 100.20   -11 Snow Showers,Blowing Snow
10:00 -3.0 -6.4 77   29 32 8.0 100.42   -11 Snow Showers,Blowing Snow
11:00 -3.4 -6.2 81   29 43 8.0 100.49   -12 Snow Showers,Blowing Snow
12:00 -3.5 -7.0 77   30 41 24.1 100.61   -12 Cloudy
13:00 -3.4 -7.2 75   30 35 24.1 100.76   -11 Cloudy
14:00 -3.4 -6.2 81   30 30 32.2 100.86   -11 Cloudy
15:00 -3.4 -6.9 77   29 26 40.2 101.01   -10 Mostly Cloudy
16:00 -3.6 -7.1 77   30 20 40.2 101.12   -10 Mostly Cloudy
17:00 -3.6 -7.1 77   30 19 24.1 101.25   -10 Mostly Cloudy
18:00 -4.0 -7.6 76   30 26 24.1 101.35   -11 Cloudy
19:00 -4.1 -8.1 74   29 20 24.1 101.41   -10 Cloudy
20:00 -4.2 -8.6 71   31 9 24.1 101.43   -8 Mostly Cloudy
21:00 -5.3 -9.3 73   28 6 24.1 101.43   -8 Mainly Clear
22:00 -7.8 -11.4 75   29 6 24.1 101.45   -11 Mainly Clear
23:00 -10.9 -12.6 87   17 4 24.1 101.39   -13 Mainly Clear

Notes on Data Quality.

Legend

  • E = Estimated
  • M = Missing
  • NA = Not Available*
  • [empty] = Indicates an unobserved value
Date modified: